When you browse on this site, cookies collect data to enhance your experience and personalize the content and advertising you see.
Visit our Privacy Policy to learn more. By continuing to use the site, you agree to this use of cookies and data.
  • In Schweiz
  • Länderverzeichnis
  • Für 7 Tage
  • Wassertemperatur
  • Wetterkarte
  • Widgets
  • user-avatar
    Anmelden

    Stündliche Wetter Boa Vista

    Heute, 10 April, Freitag

    Zeit Temperatur Niederschläge Wind Luftdruck Luftfeuchtigkeit
    00:00 +27°C° 0.1 mm 2 m/S 752 mmHg 89%
    01:00 +27°C° 0.1 mm 1 m/S 752 mmHg 89%
    02:00 +27°C° 0 mm 1 m/S 752 mmHg 89%
    03:00 +27°C° 0 mm 1 m/S 752 mmHg 90%
    04:00 +27°C° 0 mm 1 m/S 752 mmHg 91%
    05:00 +27°C° 0 mm 1 m/S 751 mmHg 91%
    06:00 +27°C° 0.2 mm 2 m/S 752 mmHg 87%
    07:00 +28°C° 0.2 mm 2 m/S 753 mmHg 83%
    08:00 +29°C° 0.2 mm 3 m/S 754 mmHg 79%
    09:00 +30°C° 0.6 mm 3 m/S 754 mmHg 73%
    10:00 +33°C° 0.6 mm 3 m/S 753 mmHg 68%
    11:00 +34°C° 0.6 mm 4 m/S 753 mmHg 62%
    12:00 +35°C° 0.2 mm 3 m/S 752 mmHg 59%
    13:00 +36°C° 0.2 mm 3 m/S 751 mmHg 55%
    14:00 +36°C° 0.2 mm 2 m/S 751 mmHg 51%
    15:00 +36°C° 0 mm 2 m/S 750 mmHg 51%
    16:00 +36°C° 0 mm 2 m/S 750 mmHg 51%
    17:00 +36°C° 0 mm 2 m/S 749 mmHg 51%
    18:00 +35°C° 0.1 mm 2 m/S 750 mmHg 56%
    19:00 +34°C° 0.1 mm 2 m/S 751 mmHg 61%
    20:00 +31°C° 0.1 mm 2 m/S 751 mmHg 66%
    21:00 +31°C° 1.7 mm 2 m/S 752 mmHg 69%
    22:00 +30°C° 1.7 mm 3 m/S 752 mmHg 72%
    23:00 +29°C° 1.7 mm 3 m/S 753 mmHg 75%

    Morgen, 11 April, Samstag

    Zeit Temperatur Niederschläge Wind Luftdruck Luftfeuchtigkeit
    00:00 +29°C° 0.7 mm 4 m/S 752 mmHg 79%
    01:00 +28°C° 0.7 mm 5 m/S 752 mmHg 82%
    02:00 +27°C° 0.7 mm 6 m/S 752 mmHg 86%
    03:00 +27°C° 2 mm 5 m/S 752 mmHg 87%
    04:00 +26°C° 2 mm 5 m/S 752 mmHg 88%
    05:00 +26°C° 2 mm 5 m/S 752 mmHg 89%
    06:00 +27°C° 1.8 mm 4 m/S 753 mmHg 86%
    07:00 +27°C° 1.8 mm 4 m/S 753 mmHg 84%
    08:00 +27°C° 1.8 mm 3 m/S 754 mmHg 82%
    09:00 +29°C° 0.1 mm 4 m/S 754 mmHg 75%
    10:00 +32°C° 0.1 mm 4 m/S 754 mmHg 67%
    11:00 +34°C° 0.1 mm 5 m/S 754 mmHg 59%
    12:00 +34°C° 0 mm 5 m/S 753 mmHg 56%
    13:00 +35°C° 0 mm 4 m/S 752 mmHg 52%
    14:00 +36°C° 0 mm 4 m/S 751 mmHg 48%
    15:00 +36°C° 0 mm 4 m/S 751 mmHg 49%
    16:00 +36°C° 0 mm 3 m/S 751 mmHg 50%
    17:00 +35°C° 0 mm 3 m/S 750 mmHg 50%
    18:00 +34°C° 0 mm 3 m/S 751 mmHg 55%
    19:00 +32°C° 0 mm 2 m/S 751 mmHg 60%
    20:00 +30°C° 0 mm 2 m/S 752 mmHg 65%
    21:00 +30°C° 0 mm 2 m/S 752 mmHg 67%
    22:00 +29°C° 0 mm 2 m/S 753 mmHg 70%
    23:00 +29°C° 0 mm 2 m/S 753 mmHg 73%

    übermorgen, 12 April, Sonntag

    Zeit Temperatur Niederschläge Wind Luftdruck Luftfeuchtigkeit
    00:00 +28°C° 0 mm 2 m/S 753 mmHg 72%
    01:00 +28°C° 0 mm 2 m/S 752 mmHg 71%
    02:00 +28°C° 0 mm 3 m/S 752 mmHg 70%
    03:00 +28°C° 0 mm 3 m/S 752 mmHg 70%
    04:00 +27°C° 0 mm 4 m/S 752 mmHg 71%
    05:00 +27°C° 0 mm 4 m/S 752 mmHg 72%
    06:00 +27°C° 0 mm 5 m/S 753 mmHg 70%
    07:00 +28°C° 0 mm 6 m/S 754 mmHg 68%
    08:00 +28°C° 0 mm 6 m/S 754 mmHg 66%
    09:00 +30°C° 0 mm 6 m/S 754 mmHg 61%
    10:00 +33°C° 0 mm 6 m/S 755 mmHg 56%
    11:00 +34°C° 0 mm 6 m/S 755 mmHg 51%
    12:00 +35°C° 0 mm 5 m/S 753 mmHg 47%
    13:00 +36°C° 0 mm 5 m/S 752 mmHg 42%
    14:00 +37°C° 0 mm 5 m/S 751 mmHg 38%
    15:00 +37°C° 0 mm 5 m/S 751 mmHg 38%
    16:00 +37°C° 0 mm 5 m/S 750 mmHg 38%
    17:00 +37°C° 0 mm 5 m/S 750 mmHg 38%
    18:00 +35°C° 0 mm 5 m/S 751 mmHg 42%
    19:00 +34°C° 0 mm 5 m/S 751 mmHg 45%
    20:00 +33°C° 0 mm 6 m/S 752 mmHg 49%
    21:00 +32°C° 0 mm 5 m/S 752 mmHg 52%
    22:00 +30°C° 0 mm 5 m/S 753 mmHg 55%
    23:00 +30°C° 0 mm 5 m/S 753 mmHg 58%

    13 April, Montag

    Zeit Temperatur Niederschläge Wind Luftdruck Luftfeuchtigkeit
    00:00 +29°C° 0 mm 5 m/S 753 mmHg 61%
    01:00 +29°C° 0 mm 4 m/S 753 mmHg 64%
    02:00 +28°C° 0 mm 4 m/S 752 mmHg 67%
    03:00 +28°C° 0 mm 4 m/S 752 mmHg 68%
    04:00 +27°C° 0 mm 4 m/S 753 mmHg 69%
    05:00 +27°C° 0 mm 4 m/S 753 mmHg 70%
    06:00 +28°C° 0 mm 4 m/S 753 mmHg 68%
    07:00 +28°C° 0 mm 5 m/S 754 mmHg 65%
    08:00 +29°C° 0 mm 5 m/S 754 mmHg 62%
    09:00 +30°C° 0 mm 5 m/S 754 mmHg 57%
    10:00 +33°C° 0 mm 5 m/S 754 mmHg 52%
    11:00 +35°C° 0 mm 5 m/S 754 mmHg 47%
    12:00 +36°C° 0 mm 4 m/S 753 mmHg 43%
    13:00 +37°C° 0 mm 4 m/S 752 mmHg 40%
    14:00 +38°C° 0 mm 3 m/S 751 mmHg 37%
    15:00 +37°C° 0 mm 3 m/S 750 mmHg 38%
    16:00 +37°C° 0 mm 3 m/S 750 mmHg 39%
    17:00 +37°C° 0 mm 3 m/S 750 mmHg 40%
    18:00 +35°C° 0 mm 3 m/S 750 mmHg 45%
    19:00 +34°C° 0 mm 3 m/S 751 mmHg 49%
    20:00 +31°C° 0 mm 3 m/S 751 mmHg 54%
    21:00 +31°C° 0 mm 2 m/S 752 mmHg 56%
    22:00 +30°C° 0 mm 2 m/S 752 mmHg 58%
    23:00 +30°C° 0 mm 1 m/S 752 mmHg 60%

    14 April, Dienstag

    Zeit Temperatur Niederschläge Wind Luftdruck Luftfeuchtigkeit
    00:00 +29°C° 0 mm 2 m/S 752 mmHg 60%
    01:00 +29°C° 0 mm 2 m/S 751 mmHg 61%
    02:00 +29°C° 0 mm 3 m/S 751 mmHg 61%
    03:00 +28°C° 0 mm 3 m/S 751 mmHg 63%
    04:00 +28°C° 0 mm 4 m/S 751 mmHg 64%
    05:00 +27°C° 0 mm 4 m/S 752 mmHg 66%
    06:00 +28°C° 0 mm 5 m/S 752 mmHg 64%
    07:00 +28°C° 0 mm 5 m/S 753 mmHg 61%
    08:00 +29°C° 0 mm 5 m/S 753 mmHg 58%
    09:00 +32°C° 0 mm 5 m/S 753 mmHg 52%
    10:00 +34°C° 0 mm 5 m/S 753 mmHg 46%
    11:00 +35°C° 0 mm 4 m/S 753 mmHg 40%
    12:00 +36°C° 0 mm 4 m/S 752 mmHg 38%
    13:00 +37°C° 0 mm 3 m/S 751 mmHg 35%
    14:00 +38°C° 0 mm 2 m/S 750 mmHg 32%
    15:00 +38°C° 0 mm 2 m/S 749 mmHg 33%
    16:00 +37°C° 0 mm 1 m/S 749 mmHg 34%
    17:00 +34°C° 0 mm 0 m/S 749 mmHg 35%
    18:00 +35°C° 0 mm 1 m/S 749 mmHg 38%
    19:00 +34°C° 0 mm 1 m/S 750 mmHg 41%
    20:00 +32°C° 0 mm 2 m/S 750 mmHg 44%
    21:00 +32°C° 0 mm 2 m/S 751 mmHg 47%
    22:00 +31°C° 0 mm 2 m/S 751 mmHg 50%
    23:00 +30°C° 0 mm 3 m/S 752 mmHg 53%

    15 April, Mittwoch

    Zeit Temperatur Niederschläge Wind Luftdruck Luftfeuchtigkeit
    00:00 +30°C° 0 mm 3 m/S 751 mmHg 54%
    01:00 +30°C° 0 mm 3 m/S 751 mmHg 55%
    02:00 +30°C° 0 mm 4 m/S 751 mmHg 56%
    03:00 +29°C° 0 mm 4 m/S 751 mmHg 56%
    04:00 +29°C° 0 mm 4 m/S 751 mmHg 55%
    05:00 +28°C° 0 mm 4 m/S 752 mmHg 55%
    06:00 +29°C° 0 mm 4 m/S 752 mmHg 55%
    07:00 +29°C° 0 mm 4 m/S 753 mmHg 55%
    08:00 +30°C° 0 mm 5 m/S 754 mmHg 55%
    09:00 +32°C° 0 mm 5 m/S 754 mmHg 50%
    10:00 +34°C° 0 mm 5 m/S 754 mmHg 45%
    11:00 +36°C° 0 mm 5 m/S 753 mmHg 40%
    12:00 +36°C° 0 mm 4 m/S 752 mmHg 36%
    13:00 +37°C° 0 mm 4 m/S 752 mmHg 33%
    14:00 +38°C° 0 mm 4 m/S 751 mmHg 29%
    15:00 +38°C° 0 mm 4 m/S 750 mmHg 30%
    16:00 +38°C° 0 mm 3 m/S 750 mmHg 31%
    17:00 +37°C° 0 mm 3 m/S 750 mmHg 32%
    18:00 +36°C° 0 mm 3 m/S 750 mmHg 35%
    19:00 +34°C° 0 mm 2 m/S 751 mmHg 38%
    20:00 +32°C° 0 mm 2 m/S 751 mmHg 41%
    21:00 +31°C° 0 mm 2 m/S 752 mmHg 44%
    22:00 +30°C° 0 mm 1 m/S 752 mmHg 47%
    23:00 +30°C° 0 mm 1 m/S 752 mmHg 49%
    Mehr zeigen